Hourly Weather Boltino

Today, 31 July, Saturday

Time Temperature Precipitation Wind Pressure Humidity
00:00 +19°C° 0.4 mm 3 mps 738 mmHg 92%
01:00 +19°C° 0 mm 3 mps 738 mmHg 93%
02:00 +19°C° 0 mm 3 mps 738 mmHg 94%
03:00 +19°C° 0 mm 3 mps 738 mmHg 95%
04:00 +19°C° 0 mm 3 mps 738 mmHg 94%
05:00 +20°C° 0 mm 3 mps 738 mmHg 93%
06:00 +20°C° 0 mm 3 mps 738 mmHg 93%
07:00 +22°C° 0 mm 4 mps 739 mmHg 86%
08:00 +23°C° 0 mm 4 mps 739 mmHg 80%
09:00 +26°C° 0 mm 4 mps 739 mmHg 73%
10:00 +27°C° 0 mm 5 mps 739 mmHg 67%
11:00 +28°C° 0 mm 5 mps 739 mmHg 60%
12:00 +29°C° 0 mm 6 mps 740 mmHg 54%
13:00 +30°C° 0 mm 6 mps 740 mmHg 50%
14:00 +30°C° 0 mm 6 mps 740 mmHg 47%
15:00 +30°C° 0 mm 6 mps 740 mmHg 44%
16:00 +29°C° 0 mm 5 mps 740 mmHg 48%
17:00 +29°C° 0 mm 4 mps 740 mmHg 52%
18:00 +28°C° 0 mm 3 mps 740 mmHg 55%
19:00 +26°C° 0 mm 2 mps 741 mmHg 60%
20:00 +25°C° 0 mm 2 mps 741 mmHg 64%
21:00 +23°C° 0 mm 1 mps 741 mmHg 69%
22:00 +22°C° 0 mm 1 mps 742 mmHg 69%
23:00 +22°C° 0 mm 1 mps 742 mmHg 70%

Tomorrow, 1 August, Sunday

Time Temperature Precipitation Wind Pressure Humidity
00:00 +22°C° 0 mm 1 mps 742 mmHg 71%
01:00 +21°C° 0 mm 1 mps 742 mmHg 71%
02:00 +20°C° 0 mm 2 mps 743 mmHg 72%
03:00 +19°C° 0 mm 2 mps 743 mmHg 73%
04:00 +20°C° 0 mm 2 mps 743 mmHg 71%
05:00 +20°C° 0 mm 2 mps 743 mmHg 70%
06:00 +21°C° 0 mm 2 mps 744 mmHg 69%
07:00 +24°C° 0 mm 2 mps 744 mmHg 62%
08:00 +26°C° 0 mm 3 mps 744 mmHg 55%
09:00 +28°C° 0 mm 3 mps 744 mmHg 48%
10:00 +29°C° 0 mm 3 mps 744 mmHg 45%
11:00 +30°C° 0 mm 4 mps 744 mmHg 41%
12:00 +32°C° 0 mm 4 mps 744 mmHg 38%
13:00 +33°C° 0 mm 4 mps 744 mmHg 37%
14:00 +33°C° 0 mm 4 mps 744 mmHg 36%
15:00 +33°C° 0 mm 4 mps 744 mmHg 35%
16:00 +31°C° 0 mm 3 mps 744 mmHg 41%
17:00 +30°C° 0 mm 3 mps 744 mmHg 46%
18:00 +29°C° 0 mm 2 mps 744 mmHg 52%
19:00 +27°C° 0 mm 2 mps 744 mmHg 56%
20:00 +26°C° 0 mm 1 mps 744 mmHg 59%
21:00 +24°C° 0 mm 1 mps 744 mmHg 63%
22:00 +23°C° 0 mm 1 mps 744 mmHg 63%
23:00 +23°C° 0 mm 1 mps 744 mmHg 64%

Day after tomorrow, 2 August, Monday

Time Temperature Precipitation Wind Pressure Humidity
00:00 +22°C° 0 mm 1 mps 744 mmHg 64%
01:00 +22°C° 0 mm 1 mps 744 mmHg 64%
02:00 +22°C° 0 mm 1 mps 744 mmHg 65%
03:00 +22°C° 0 mm 1 mps 744 mmHg 65%
04:00 +22°C° 0 mm 1 mps 745 mmHg 64%
05:00 +23°C° 0 mm 1 mps 745 mmHg 64%
06:00 +24°C° 0 mm 1 mps 745 mmHg 63%
07:00 +26°C° 0 mm 2 mps 745 mmHg 56%
08:00 +28°C° 0 mm 2 mps 745 mmHg 49%
09:00 +31°C° 0 mm 2 mps 745 mmHg 42%
10:00 +32°C° 0 mm 2 mps 745 mmHg 39%
11:00 +34°C° 0 mm 2 mps 744 mmHg 35%
12:00 +36°C° 0 mm 2 mps 744 mmHg 32%
13:00 +36°C° 0 mm 2 mps 744 mmHg 32%
14:00 +36°C° 0 mm 2 mps 743 mmHg 32%
15:00 +36°C° 0 mm 2 mps 743 mmHg 32%
16:00 +32°C° 0.5 mm 2 mps 743 mmHg 42%
17:00 +28°C° 0.5 mm 3 mps 743 mmHg 53%
18:00 +25°C° 0.5 mm 3 mps 742 mmHg 63%
19:00 +25°C° 0 mm 3 mps 742 mmHg 61%
20:00 +24°C° 0 mm 3 mps 742 mmHg 59%
21:00 +22°C° 0 mm 3 mps 742 mmHg 57%
22:00 +22°C° 0 mm 3 mps 742 mmHg 59%
23:00 +22°C° 0 mm 3 mps 742 mmHg 60%

3 August, Tuesday

Time Temperature Precipitation Wind Pressure Humidity
00:00 +22°C° 0 mm 3 mps 742 mmHg 61%
01:00 +22°C° 0 mm 3 mps 742 mmHg 60%
02:00 +22°C° 0 mm 3 mps 741 mmHg 59%
03:00 +22°C° 0 mm 3 mps 741 mmHg 58%
04:00 +22°C° 0 mm 3 mps 741 mmHg 58%
05:00 +22°C° 0 mm 3 mps 741 mmHg 58%
06:00 +24°C° 0 mm 3 mps 741 mmHg 59%
07:00 +26°C° 0 mm 4 mps 741 mmHg 51%
08:00 +29°C° 0 mm 4 mps 741 mmHg 44%
09:00 +33°C° 0 mm 5 mps 741 mmHg 36%
10:00 +34°C° 0 mm 5 mps 741 mmHg 33%
11:00 +35°C° 0 mm 6 mps 741 mmHg 30%
12:00 +38°C° 0 mm 6 mps 740 mmHg 26%
13:00 +36°C° 0 mm 6 mps 740 mmHg 30%
14:00 +34°C° 0 mm 6 mps 740 mmHg 34%
15:00 +33°C° 0 mm 6 mps 740 mmHg 37%
16:00 +32°C° 0 mm 5 mps 741 mmHg 42%
17:00 +30°C° 0 mm 5 mps 741 mmHg 47%
18:00 +29°C° 0 mm 5 mps 741 mmHg 52%
19:00 +27°C° 0 mm 4 mps 741 mmHg 58%
20:00 +25°C° 0 mm 3 mps 741 mmHg 65%
21:00 +23°C° 0 mm 2 mps 741 mmHg 71%
22:00 +23°C° 0 mm 2 mps 741 mmHg 69%
23:00 +23°C° 0 mm 2 mps 741 mmHg 68%

4 August, Wednesday

Time Temperature Precipitation Wind Pressure Humidity
00:00 +23°C° 0 mm 2 mps 741 mmHg 67%
01:00 +21°C° 0 mm 2 mps 741 mmHg 72%
02:00 +21°C° 0 mm 2 mps 741 mmHg 77%
03:00 +20°C° 0 mm 2 mps 742 mmHg 82%
04:00 +20°C° 0.1 mm 3 mps 742 mmHg 85%
05:00 +19°C° 0.1 mm 3 mps 742 mmHg 87%
06:00 +19°C° 0.1 mm 3 mps 742 mmHg 90%
07:00 +20°C° 0 mm 4 mps 743 mmHg 80%
08:00 +22°C° 0 mm 4 mps 743 mmHg 71%
09:00 +23°C° 0 mm 4 mps 743 mmHg 61%
10:00 +25°C° 0 mm 4 mps 744 mmHg 56%
11:00 +26°C° 0 mm 4 mps 744 mmHg 51%
12:00 +27°C° 0 mm 4 mps 744 mmHg 46%
13:00 +27°C° 0 mm 4 mps 744 mmHg 44%
14:00 +28°C° 0 mm 4 mps 744 mmHg 42%
15:00 +28°C° 0 mm 4 mps 744 mmHg 40%
16:00 +27°C° 0 mm 4 mps 744 mmHg 43%
17:00 +27°C° 0 mm 3 mps 744 mmHg 46%
18:00 +26°C° 0 mm 3 mps 745 mmHg 50%
19:00 +24°C° 0 mm 3 mps 745 mmHg 55%
20:00 +21°C° 0 mm 2 mps 745 mmHg 61%
21:00 +19°C° 0 mm 2 mps 745 mmHg 66%
22:00 +19°C° 0 mm 2 mps 745 mmHg 67%
23:00 +18°C° 0 mm 2 mps 745 mmHg 68%

5 August, Thursday

Time Temperature Precipitation Wind Pressure Humidity
00:00 +17°C° 0 mm 2 mps 745 mmHg 69%
01:00 +17°C° 0 mm 2 mps 746 mmHg 69%
02:00 +17°C° 0 mm 2 mps 746 mmHg 70%
03:00 +16°C° 0 mm 2 mps 746 mmHg 70%
04:00 +17°C° 0 mm 2 mps 746 mmHg 69%
05:00 +17°C° 0 mm 2 mps 746 mmHg 67%
06:00 +19°C° 0 mm 1 mps 746 mmHg 66%
07:00 +20°C° 0 mm 2 mps 746 mmHg 59%
08:00 +23°C° 0 mm 2 mps 747 mmHg 53%
09:00 +25°C° 0 mm 2 mps 747 mmHg 46%
10:00 +26°C° 0 mm 3 mps 747 mmHg 42%
11:00 +27°C° 0 mm 3 mps 747 mmHg 38%
12:00 +28°C° 0 mm 3 mps 746 mmHg 35%
13:00 +28°C° 0 mm 4 mps 746 mmHg 36%
14:00 +27°C° 0 mm 4 mps 746 mmHg 37%
15:00 +27°C° 0 mm 5 mps 747 mmHg 38%
16:00 +26°C° 0 mm 4 mps 747 mmHg 41%
17:00 +26°C° 0 mm 3 mps 747 mmHg 44%
18:00 +25°C° 0 mm 3 mps 747 mmHg 48%
19:00 +23°C° 0 mm 2 mps 747 mmHg 52%
20:00 +20°C° 0 mm 2 mps 747 mmHg 56%
21:00 +18°C° 0 mm 2 mps 747 mmHg 60%
22:00 +18°C° 0 mm 2 mps 747 mmHg 60%
23:00 +17°C° 0 mm 2 mps 747 mmHg 61%
Show more

We Need Your Consent

Meteoprog and our Service Providers may store and access personal data such as cookies, device identifiers or other similar technologies on your device and process such data to personalise content and ads, as well as provide social media features and to analyse the traffic.

  • Store and/or access information on your device

    Cookies, device identifiers or other information can be stored or accessed on your device for the purposes indicated above.

  • Personalised ads and content, ad and content measurement, audience insights, and products development

    Ads and content can be personalised based on a profile. More data can be added to better personalise ads and content. Ad and content performance can be measured. Insights about the audience who saw the ads and content can be derived. Such data can be used to develop or improve user’s experience, systems and software.

By clicking ‘I Agree’ you will allow the use of indicated cookies, device identifiers, web beacons or other similar technologies. Your settings can be changed in the browser on your device.

For certain purposes, legitimate interests may be relied on, rather than consent. You can read more about this in our Privacy and Cookie Policy.